• In Österreich
  • Länderverzeichnis
  • Für 7 Tage
  • Wassertemperatur
  • Satellitenkarten
  • Wetterkarte
  • News
  • Widgets
  • user-avatar
    Anmelden

    Stündliche Wetter Suşehri

    Heute, 18 November, Samstag

    Zeit Temperatur Niederschläge Wind Luftdruck Luftfeuchtigkeit
    00:00 +8°C° 0 mm 2 m/S 670 mmHg 56%
    01:00 +8°C° 0 mm 2 m/S 670 mmHg 58%
    02:00 +8°C° 0 mm 2 m/S 670 mmHg 60%
    03:00 +8°C° 0 mm 3 m/S 670 mmHg 61%
    04:00 +8°C° 0 mm 3 m/S 670 mmHg 62%
    05:00 +7°C° 0 mm 2 m/S 670 mmHg 64%
    06:00 +7°C° 0 mm 2 m/S 670 mmHg 65%
    07:00 +8°C° 0 mm 2 m/S 670 mmHg 62%
    08:00 +9°C° 0 mm 2 m/S 671 mmHg 58%
    09:00 +10°C° 0 mm 2 m/S 671 mmHg 56%
    10:00 +12°C° 0 mm 2 m/S 671 mmHg 51%
    11:00 +13°C° 0 mm 3 m/S 671 mmHg 45%
    12:00 +14°C° 0 mm 3 m/S 672 mmHg 39%
    13:00 +16°C° 0 mm 3 m/S 671 mmHg 37%
    14:00 +16°C° 0 mm 3 m/S 671 mmHg 35%
    15:00 +16°C° 0 mm 3 m/S 671 mmHg 33%
    16:00 +14°C° 0 mm 3 m/S 670 mmHg 37%
    17:00 +12°C° 0 mm 3 m/S 670 mmHg 41%
    18:00 +12°C° 0 mm 2 m/S 670 mmHg 44%
    19:00 +12°C° 0 mm 2 m/S 670 mmHg 46%
    20:00 +10°C° 0 mm 3 m/S 669 mmHg 47%
    21:00 +10°C° 0 mm 3 m/S 669 mmHg 49%
    22:00 +9°C° 0 mm 3 m/S 669 mmHg 50%
    23:00 +9°C° 0 mm 3 m/S 669 mmHg 50%

    Morgen, 19 November, Sonntag

    Zeit Temperatur Niederschläge Wind Luftdruck Luftfeuchtigkeit
    00:00 +9°C° 0 mm 3 m/S 669 mmHg 51%
    01:00 +9°C° 0 mm 3 m/S 669 mmHg 52%
    02:00 +9°C° 0 mm 3 m/S 669 mmHg 52%
    03:00 +9°C° 0 mm 3 m/S 669 mmHg 52%
    04:00 +8°C° 0 mm 3 m/S 668 mmHg 53%
    05:00 +8°C° 0 mm 3 m/S 668 mmHg 54%
    06:00 +8°C° 0 mm 3 m/S 668 mmHg 55%
    07:00 +9°C° 0 mm 3 m/S 668 mmHg 53%
    08:00 +9°C° 0 mm 3 m/S 668 mmHg 51%
    09:00 +10°C° 0 mm 4 m/S 669 mmHg 49%
    10:00 +11°C° 0 mm 4 m/S 669 mmHg 45%
    11:00 +13°C° 0 mm 5 m/S 669 mmHg 42%
    12:00 +14°C° 0 mm 5 m/S 669 mmHg 38%
    13:00 +14°C° 0 mm 5 m/S 668 mmHg 40%
    14:00 +14°C° 0 mm 6 m/S 668 mmHg 41%
    15:00 +14°C° 0 mm 6 m/S 668 mmHg 42%
    16:00 +13°C° 0 mm 5 m/S 667 mmHg 48%
    17:00 +11°C° 0 mm 4 m/S 667 mmHg 54%
    18:00 +10°C° 0 mm 3 m/S 667 mmHg 60%
    19:00 +10°C° 0 mm 3 m/S 667 mmHg 63%
    20:00 +9°C° 0 mm 3 m/S 667 mmHg 66%
    21:00 +9°C° 0 mm 3 m/S 668 mmHg 69%
    22:00 +8°C° 0 mm 3 m/S 668 mmHg 71%
    23:00 +8°C° 0 mm 3 m/S 668 mmHg 73%

    übermorgen, 20 November, Montag

    Zeit Temperatur Niederschläge Wind Luftdruck Luftfeuchtigkeit
    00:00 +8°C° 0 mm 3 m/S 668 mmHg 76%
    01:00 +8°C° 0 mm 3 m/S 668 mmHg 79%
    02:00 +7°C° 0 mm 3 m/S 668 mmHg 82%
    03:00 +7°C° 0 mm 3 m/S 667 mmHg 84%
    04:00 +7°C° 0 mm 3 m/S 667 mmHg 86%
    05:00 +7°C° 0 mm 3 m/S 667 mmHg 87%
    06:00 +5°C° 0 mm 3 m/S 667 mmHg 88%
    07:00 +7°C° 0 mm 3 m/S 667 mmHg 85%
    08:00 +6°C° 0 mm 4 m/S 667 mmHg 82%
    09:00 +7°C° 0 mm 4 m/S 667 mmHg 78%
    10:00 +8°C° 0 mm 4 m/S 667 mmHg 73%
    11:00 +9°C° 0 mm 5 m/S 666 mmHg 67%
    12:00 +10°C° 0 mm 6 m/S 666 mmHg 61%
    13:00 +11°C° 0,1 mm 6 m/S 666 mmHg 60%
    14:00 +11°C° 0,1 mm 6 m/S 665 mmHg 60%
    15:00 +11°C° 0,1 mm 6 m/S 665 mmHg 60%
    16:00 +10°C° 0,2 mm 5 m/S 665 mmHg 64%
    17:00 +10°C° 0,2 mm 4 m/S 664 mmHg 69%
    18:00 +9°C° 0,2 mm 3 m/S 664 mmHg 73%
    19:00 +9°C° 0,4 mm 3 m/S 664 mmHg 76%
    20:00 +9°C° 0,4 mm 3 m/S 664 mmHg 78%
    21:00 +9°C° 0,4 mm 3 m/S 664 mmHg 81%
    22:00 +8°C° 0,4 mm 3 m/S 663 mmHg 83%
    23:00 +8°C° 0,4 mm 3 m/S 663 mmHg 84%

    21 November, Dienstag

    Zeit Temperatur Niederschläge Wind Luftdruck Luftfeuchtigkeit
    00:00 +8°C° 0,4 mm 3 m/S 663 mmHg 86%
    01:00 +8°C° 0,1 mm 3 m/S 662 mmHg 88%
    02:00 +7°C° 0,1 mm 3 m/S 662 mmHg 89%
    03:00 +7°C° 0,1 mm 3 m/S 661 mmHg 91%
    04:00 +7°C° 0 mm 3 m/S 661 mmHg 91%
    05:00 +7°C° 0 mm 3 m/S 661 mmHg 91%
    06:00 +7°C° 0 mm 3 m/S 661 mmHg 92%
    07:00 +7°C° 0,3 mm 3 m/S 661 mmHg 89%
    08:00 +7°C° 0,3 mm 3 m/S 661 mmHg 87%
    09:00 +8°C° 0,3 mm 3 m/S 661 mmHg 85%
    10:00 +8°C° 1,7 mm 3 m/S 661 mmHg 84%
    11:00 +8°C° 1,7 mm 3 m/S 661 mmHg 84%
    12:00 +9°C° 1,7 mm 3 m/S 660 mmHg 83%
    13:00 +7°C° 3,7 mm 4 m/S 661 mmHg 85%
    14:00 +6°C° 3,7 mm 5 m/S 661 mmHg 86%
    15:00 +5°C° 3,7 mm 5 m/S 661 mmHg 88%
    16:00 +2°C° 3,7 mm 5 m/S 661 mmHg 90%
    17:00 +1°C° 3,7 mm 5 m/S 662 mmHg 92%
    18:00 -1°C° 3,7 mm 5 m/S 663 mmHg 94%
    19:00 -1°C° 0,8 mm 5 m/S 663 mmHg 94%
    20:00 -1°C° 0,8 mm 4 m/S 664 mmHg 94%
    21:00 -1°C° 0,8 mm 4 m/S 665 mmHg 94%
    22:00 -1°C° 0,4 mm 3 m/S 665 mmHg 95%
    23:00 -1°C° 0,4 mm 3 m/S 665 mmHg 95%

    22 November, Mittwoch

    Zeit Temperatur Niederschläge Wind Luftdruck Luftfeuchtigkeit
    00:00 -1°C° 0,4 mm 3 m/S 665 mmHg 95%
    01:00 -1°C° 0,5 mm 2 m/S 666 mmHg 95%
    02:00 -2°C° 0,5 mm 2 m/S 666 mmHg 95%
    03:00 -2°C° 0,5 mm 2 m/S 666 mmHg 95%
    04:00 -2°C° 0,5 mm 2 m/S 666 mmHg 95%
    05:00 -2°C° 0,5 mm 2 m/S 666 mmHg 96%
    06:00 -2°C° 0,5 mm 2 m/S 667 mmHg 96%
    07:00 -2°C° 0,3 mm 2 m/S 667 mmHg 95%
    08:00 0°C° 0,3 mm 1 m/S 667 mmHg 95%
    09:00 0°C° 0,3 mm 1 m/S 667 mmHg 94%
    10:00 +1°C° 0,1 mm 1 m/S 667 mmHg 92%
    11:00 -1°C° 0,1 mm 2 m/S 667 mmHg 90%
    12:00 +1°C° 0,1 mm 2 m/S 667 mmHg 88%
    13:00 +1°C° 0 mm 2 m/S 667 mmHg 87%
    14:00 +1°C° 0 mm 2 m/S 667 mmHg 86%
    15:00 0°C° 0 mm 3 m/S 667 mmHg 84%
    16:00 -1°C° 0,2 mm 2 m/S 667 mmHg 86%
    17:00 -2°C° 0,2 mm 2 m/S 667 mmHg 88%
    18:00 -2°C° 0,2 mm 2 m/S 667 mmHg 91%
    19:00 -2°C° 0,3 mm 2 m/S 667 mmHg 91%
    20:00 -2°C° 0,3 mm 3 m/S 667 mmHg 92%
    21:00 -2°C° 0,3 mm 3 m/S 668 mmHg 92%
    22:00 -2°C° 0,9 mm 3 m/S 668 mmHg 93%
    23:00 -2°C° 0,9 mm 2 m/S 668 mmHg 94%

    23 November, Donnerstag

    Zeit Temperatur Niederschläge Wind Luftdruck Luftfeuchtigkeit
    00:00 -2°C° 0,9 mm 2 m/S 668 mmHg 95%
    01:00 -1°C° 0,7 mm 2 m/S 668 mmHg 95%
    02:00 -1°C° 0,7 mm 2 m/S 668 mmHg 95%
    03:00 -1°C° 0,7 mm 2 m/S 669 mmHg 95%
    04:00 -2°C° 0,2 mm 2 m/S 669 mmHg 95%
    05:00 -3°C° 0,2 mm 2 m/S 669 mmHg 95%
    06:00 -4°C° 0,2 mm 2 m/S 669 mmHg 95%
    07:00 -4°C° 0,1 mm 2 m/S 669 mmHg 94%
    08:00 -4°C° 0,1 mm 2 m/S 670 mmHg 94%
    09:00 -4°C° 0,1 mm 2 m/S 671 mmHg 93%
    10:00 -4°C° 0,1 mm 2 m/S 671 mmHg 90%
    11:00 -3°C° 0,1 mm 2 m/S 671 mmHg 87%
    12:00 -2°C° 0,1 mm 2 m/S 672 mmHg 84%
    13:00 -2°C° 0,2 mm 2 m/S 672 mmHg 85%
    14:00 -2°C° 0,2 mm 2 m/S 672 mmHg 85%
    15:00 -2°C° 0,2 mm 2 m/S 672 mmHg 86%
    16:00 -3°C° 0,2 mm 2 m/S 672 mmHg 88%
    17:00 -4°C° 0,2 mm 2 m/S 673 mmHg 89%
    18:00 -3°C° 0,2 mm 1 m/S 673 mmHg 91%
    19:00 -4°C° 0,1 mm 1 m/S 673 mmHg 92%
    20:00 -4°C° 0,1 mm 1 m/S 673 mmHg 92%
    21:00 -6°C° 0,1 mm 1 m/S 673 mmHg 92%
    22:00 -6°C° 0 mm 1 m/S 673 mmHg 92%
    23:00 -7°C° 0 mm 1 m/S 673 mmHg 92%
    Mehr zeigen